{"data":{"norad_id":33498,"epoch":"2026-09-20T03:03:37.105056Z","epoch_age_seconds":50411,"freshness":"FRESH","line1":"1 33498U 09002G   26263.12751279  .00002209  00000+0  20095-3 0  9992","line2":"2 33498  98.1626 214.3881 0007531 209.2985 150.7813 14.96307268952679","mean_motion":14.96307268,"eccentricity":0.0007531,"inclination_deg":98.1626,"raan_deg":214.3881,"arg_perigee_deg":209.2985,"mean_anomaly_deg":150.7813,"bstar":0.00020095,"rev_number":95267,"period_min":96.236918098028,"perigee_km":573.07916191789,"apogee_km":583.55697454166,"semimajor_km":6956.4550682298,"source":"CELESTRAK","updated_at":"2026-09-20T09:00:13.702462Z"}}